Wetbulb
69.80 70.08 69.01 68.76 69.17 69.76 68.36 69.57 71.23 72.63 72.35 71.75 71.33 72.10 72.32 71.21 71.98 72.18 72.03 71.13 71.01 70.49
70.06 70.35 69.57 70.78 70.19 67.87 67.97 69.75 70.19 70.74 70.14 70.20 72.32 73.17 72.20 70.18 70.87 71.45 70.87 70.43 71.57 70.66
69.91 70.00 70.87 69.85 68.97 69.04 69.48 70.17 70.61 69.88 68.95 71.95 71.71 73.22 73.27 70.83 69.83 69.14 67.56 69.99 70.44 69.95
70.60 70.71 70.78 70.15 69.39 68.99 70.78 70.32 70.62 70.97 70.64 71.57 72.68 73.44 71.73 71.11 70.80 69.31 68.43 69.17 69.91 70.42
70.86 70.56 70.69 69.91 70.62 69.91 70.65 70.79 70.31 71.73 71.28 71.04 71.46 71.22 69.91 69.63 71.84 69.91 69.81 69.97 70.52 69.56
69.37 70.27 70.52 70.68 70.14 71.22 70.89 71.38 71.53 71.42 70.81 70.86 71.19 71.10 71.01 71.20 70.90 70.83 71.07 71.08 70.24 70.23
67.34 67.61 68.42 68.98 69.27 69.87 71.07 70.63 70.47 71.29 70.56 70.37 71.22 69.86 69.18 69.81 69.86 70.42 71.11 71.23 70.89 70.58
66.19 65.86 65.93 67.43 68.73 70.66 71.14 70.27 70.45 70.69 70.48 68.78 67.49 66.91 66.46 68.48 69.96 70.76 70.23 70.73 71.64 71.02
66.91 65.61 65.93 68.60 69.16 69.37 69.39 69.84 69.59 70.36 67.04 64.49 63.53 61.64 64.07 66.15 68.92 70.76 70.72 70.40 70.90 71.53
66.93 65.19 66.29 68.42 68.64 68.96 68.85 67.83 68.37 67.06 65.13 62.82 61.72 61.94 61.87 65.75 68.11 70.18 68.53 66.39 67.11 69.91
65.69 64.98 66.23 68.33 68.12 67.85 67.24 66.36 66.29 64.39 62.12 60.93 59.46 58.51 59.19 63.77 67.07 68.28 63.30 61.64 63.37 64.25
66.59 67.15 67.20 67.36 67.40 67.53 66.24 64.48 63.03 62.81 62.25 58.94 57.98 56.49 57.17 59.99 65.97 64.49 60.53 60.26 58.86 61.43
66.79 66.58 66.24 66.45 65.34 64.30 63.67 61.70 60.67 59.18 59.22 58.46 57.63 55.72 55.79 58.96 64.31 64.54 59.34 57.81 56.11 56.99
65.62 65.09 64.65 64.37 63.66 62.91 62.16 60.21 59.30 56.81 56.43 55.91 55.39 55.16 54.01 55.69 64.23 60.97 57.86 56.49 55.35 54.08
MSLP
1017.83 1017.93 1017.98 1018.20 1018.18 1018.30 1018.62 1018.34 1017.93 1017.84 1017.92 1017.89 1018.05 1018.14 1018.13 1018.40 1018.49 1018.45 1018.37 1018.56 1018.36 1018.56
1017.53 1017.65 1017.76 1018.12 1018.23 1018.35 1018.37 1018.27 1017.94 1018.01 1018.20 1017.95 1017.95 1017.90 1017.99 1018.38 1018.18 1018.25 1018.49 1018.48 1018.24 1018.23
1017.20 1017.50 1017.71 1017.83 1018.03 1018.14 1018.14 1018.07 1017.77 1017.88 1018.13 1018.11 1017.76 1017.59 1017.92 1018.14 1018.18 1018.25 1018.38 1018.32 1018.29 1018.17
1016.66 1017.10 1017.51 1017.66 1017.87 1017.88 1017.93 1017.84 1017.70 1017.74 1017.87 1018.05 1018.04 1017.88 1018.06 1018.24 1018.36 1018.22 1018.24 1018.19 1018.08 1017.99
1016.15 1016.59 1017.00 1017.36 1017.54 1017.57 1017.65 1017.62 1017.44 1017.55 1017.77 1017.93 1017.99 1017.99 1018.13 1018.11 1018.20 1018.29 1018.10 1017.86 1017.84 1017.89
1016.08 1016.33 1016.58 1016.80 1017.03 1017.23 1017.40 1017.52 1017.63 1017.78 1017.81 1017.87 1017.88 1017.99 1017.96 1018.01 1018.03 1017.89 1017.78 1017.74 1017.70 1017.61
1016.25 1016.27 1016.47 1016.64 1016.92 1016.97 1016.72 1017.07 1017.27 1017.44 1017.63 1017.74 1017.83 1017.87 1017.84 1017.84 1017.82 1017.70 1017.71 1017.73 1017.60 1017.42
1016.24 1016.04 1016.06 1016.13 1016.19 1016.36 1016.50 1016.67 1016.76 1017.11 1017.47 1017.72 1017.96 1018.10 1017.95 1017.92 1017.73 1017.44 1017.68 1017.74 1017.60 1017.48
1016.19 1016.64 1016.35 1016.03 1015.82 1016.12 1016.66 1017.01 1017.00 1017.12 1017.60 1017.93 1018.26 1018.35 1018.10 1017.94 1017.89 1017.74 1017.54 1017.68 1017.75 1017.67
1015.68 1016.58 1016.71 1016.26 1016.21 1016.32 1016.63 1016.93 1017.53 1017.90 1018.29 1018.41 1018.72 1018.61 1018.33 1018.06 1017.95 1017.84 1017.94 1018.12 1018.28 1018.23
1015.32 1015.99 1016.35 1016.37 1016.39 1016.66 1016.76 1017.38 1017.58 1018.25 1018.88 1019.05 1019.14 1018.86 1018.50 1018.33 1018.20 1018.27 1018.52 1018.54 1018.61 1018.63
1015.42 1016.07 1016.08 1016.13 1016.42 1016.77 1016.85 1017.49 1018.01 1018.51 1019.13 1019.53 1019.52 1019.19 1018.86 1018.57 1018.51 1018.81 1019.11 1019.31 1019.09 1019.08
1015.56 1015.78 1015.97 1016.28 1016.82 1017.50 1017.72 1018.45 1018.76 1019.12 1019.46 1019.70 1019.92 1019.57 1019.13 1018.98 1018.85 1019.08 1019.72 1019.90 1019.85 1019.45
1016.19 1016.48 1016.59 1016.79 1017.35 1017.72 1018.11 1018.85 1019.41 1019.66 1019.98 1020.28 1020.31 1019.94 1019.51 1019.22 1019.04 1019.39 1019.98 1020.28 1020.28 1020.29
Wind_Speed
6 4 3 1 2 3 3 4 4 6 5 3 4 3 3 1 0 2 1 0 2 2
6 5 5 4 4 3 5 4 5 1 4 1 4 5 4 2 2 4 1 2 1 0
8 6 5 5 6 6 5 5 4 2 2 4 3 4 4 3 1 3 1 2 2 2
8 7 7 6 6 6 4 6 5 5 5 3 2 1 3 3 3 2 3 3 2 4
10 7 7 6 7 6 7 5 6 5 5 4 2 2 4 3 4 4 5 5 2 4
6 7 7 7 7 7 7 7 6 5 5 5 4 3 2 3 4 5 5 4 4 5
6 6 5 3 3 6 7 7 7 6 6 5 4 4 2 2 3 4 4 4 2 2
4 6 6 5 2 3 5 6 6 5 4 5 3 2 2 4 4 3 3 1 2 3
6 2 2 1 6 7 6 3 2 5 6 5 4 6 5 2 0 1 2 2 3 3
5 3 4 4 6 6 10 4 7 7 5 5 4 7 6 3 2 3 5 5 4 5
4 5 6 5 5 6 6 5 5 5 4 4 4 9 10 5 3 6 6 5 4 5
3 5 6 6 5 5 7 6 5 5 4 4 4 11 10 7 2 7 6 5 6 2
4 3 5 6 7 4 7 7 5 6 4 6 3 9 10 4 1 7 4 4 5 12
7 7 7 7 6 7 7 7 6 6 5 5 5 6 9 7 3 5 5 4 4 4
Wind_Direction
175 166 198 232 195 206 201 213 239 183 190 206 215 231 175 152 345 20 62 335 271 96
189 192 176 187 189 172 205 209 190 146 158 277 257 239 192 155 86 71 30 329 67 158
176 194 176 166 172 185 215 240 153 157 214 252 280 239 180 160 186 126 213 274 344 291
185 185 181 181 193 212 194 195 185 185 189 242 259 88 147 179 219 221 261 255 313 299
186 176 182 201 193 187 204 220 197 186 191 207 204 190 159 206 201 200 253 275 286 270
194 175 194 206 207 199 200 206 212 200 196 205 198 204 230 212 235 235 244 253 264 263
155 128 131 149 274 243 195 192 197 199 198 199 149 135 162 237 249 245 222 233 249 262
184 153 134 131 99 250 224 197 195 198 138 108 102 37 324 300 276 195 178 231 243 65
218 207 73 45 101 108 68 38 74 101 107 92 72 7 355 341 114 300 124 78 3 108
191 166 180 121 94 97 103 96 63 70 74 77 40 359 326 319 114 86 75 67 48 62
181 185 182 179 124 110 96 96 88 90 88 75 38 1 358 337 102 95 68 64 67 98
173 188 170 161 145 138 119 105 93 70 73 62 22 6 1 352 107 102 87 56 42 56
147 120 98 102 97 79 93 97 98 90 69 66 33 8 360 352 70 116 91 57 33 36
76 81 87 91 100 98 94 96 90 81 65 60 27 22 11 6 93 110 99 73 42 20